www.pogodaiklimat.ru

Погода и климат >> Архив погоды >> Сейшелы >> Seychelles


АРХИВ ПОГОДЫ в Seychelles

Время (UTC), дата Ветер
(напр.,м/с)
 
Видим.   Явления Облачность Т
(С)
Тd
(С)
f
(%)
Тe
(С)
Тes
(С)
Комфортность P
(гПа)
Po
(гПа)
Тmin
(С)
Tmax
(С)
R
(мм)
R24
(мм)
S
(см)
00 18.05 ЮВ 6
{10}
н/о 10/10 300 м
[]
+27.0 +24.1 84 +37 +37 очень
душно
1007.5 1008.0
03 18.05 ЮВ 6
{9}
20 км {ливн. осадки} 9/6 270 м
[Cu Sc Ac trans Ci sp]
+27.8 +24.9 84 +40 +40 очень
душно
1008.7 1009.0
06 18.05 ЮВ 7 40 км {ливн. осадки} 9/6 570 м
[Cu Sc Ac trans Ci sp]
+29.7 +25.1 76 +43 +44 опасность
перегрева
1009.4 1009.0 +26.9 4
09 18.05 ЮВ 5
{11}
8000 м осадки на расстоянии 9/6 540 м
[Cb cap Ac trans Ci sp]
+28.7 +24.6 79 +41 +43 опасность
перегрева
1008.6 1009.0
12 18.05 нст 4
{12}
5000 м слабый ливневой дождь 10/9 240 м
[Cb cap Ac trans]
+24.8 +24.3 97 +34 +35 очень
душно
1007.4 1007.0
15 18.05 нст 1
{11}
1000 м слабый ливневой дождь 10/6 270 м
[Cb cap Ac trans]
+23.8 +23.1 96 +32 +32 очень
душно
1008.0 1008.0
18 18.05 ЮВ 8
{15}
10 км в посл. час ливневой дождь 10/6 480 м
[Cb cap Ac trans]
+26.8 +21.4 72 +34 +34 очень
душно
1008.6 1009.0 +30.0 49
21 18.05 нст 5
{12}
н/о 10/0
[]
+26.2 +23.5 85 +36 +36 очень
душно
1007.2 1007.0
00 19.05 ЮВ 2
{11}
20 км 8/6 500 м
[Cb cap Ac trans Ci sp]
+27.0 +24.1 84 +37 +37 очень
душно
1006.7 1007.0
03 19.05 ЮВ 5
{6}
20 км 9/8 500 м
[Cb cap Ac trans Ci ing]
+27.4 +23.9 81 +38 +38 очень
душно
1008.1 1008.0
06 19.05 ЮВ 9 24 км 5/4 400 м
[Cb cap Ac trans Ci ing]
+29.0 +24.7 78 +41 +42 опасность
перегрева
1008.2 1008.0 +25.8 49
09 19.05 ЮВ 8
{13}
25 км 9/8 480 м
[Cb cap Ac trans Ci ing]
+29.1 +25.2 80 +42 +43 опасность
перегрева
1007.8 1008.0
12 19.05 нст 5
{11}
25 км в посл. час ливневой дождь 9/5 450 м
[Cb cap As op Ci ing]
+28.1 +25.2 84 +41 +42 опасность
перегрева
1008.1 1008.0
15 19.05 ЮВ 5
{11}
25 км слабый ливневой дождь 10/8 270 м
[Cb cap Ac trans Ci ing]
+26.0 +24.4 91 +36 +36 очень
душно
1008.7 1009.0
18 19.05 ЮВ 7 20 км {ливн. осадки} 9/6 360 м
[Cb cap Ac trans Ci sp]
+27.4 +25.1 87 +39 +39 очень
душно
1009.7 1010.0 +30.6 3
21 19.05 нст 6
{12}
н/о 10/10 300 м
[]
+27.6 +24.7 84 +39 +39 очень
душно
1009.1 1009.0
00 20.05 нст 5
{12}
н/о 10/10 300 м
[]
+27.6 +24.3 82 +39 +39 очень
душно
1008.6 1009.0
03 20.05 ЮВ 5
{10}
40 км {ливн. осадки} 8/5 500 м
[Cu Sc Ac trans Ci sp]
+27.3 +24.2 83 +38 +38 очень
душно
1009.5 1010.0
06 20.05 ЮВ 6 40 км 9/6 570 м
[Cu Sc Ac trans Ci sp]
+29.3 +24.9 77 +42 +43 опасность
перегрева
1010.4 1010.0 +26.7 0.2
09 20.05 ЮВ 7
{12}
40 км {ливн. осадки} 9/6 500 м
[Cu Sc Ac trans Ci sp]
+29.6 +25.0 76 +42 +44 опасность
перегрева
1008.4 1008.0
15 20.05 ЮВ 5
{11}
25 км в посл. час ливневой дождь 5/4 700 м
[Cu med, cong Ac trans Ci sp]
+27.5 +24.2 82 +38 +38 очень
душно
1008.7 1009.0
18 20.05 ЮВ 6
{10}
25 км {ливн. осадки} 4/4 700 м
[Cu med, cong Ci sp]
+28.0 +23.5 77 +38 +38 очень
душно
1010.2 1010.0 +30.0 2
21 20.05 ЮВ 5
{10}
н/о 8/8 600 м
[]
+27.6 +23.7 79 +38 +38 очень
душно
1009.9 1010.0
00 21.05 нст 3
{10}
30 км 4/4 660 м
[Cu med, cong]
+27.3 +23.4 79 +37 +37 очень
душно
1009.1 1009.0
03 21.05 нст 3
{9}
25 км 9/5 480 м
[Cb cap Ci ing]
+27.1 +23.0 78 +36 +36 очень
душно
1010.2 1010.0
06 21.05 нст 6 25 км 9/5 660 м
[Cu Sc Ci sp]
+28.8 +23.8 74 +39 +42 очень
душно
1010.6 1011.0 +27.0
09 21.05 нст 6
{14}
25 км 6/5 600 м
[Cu Sc Ci sp]
+29.3 +24.5 75 +41 +45 опасность
перегрева
1009.0 1009.0
12 21.05 нст 4
{14}
25 км 9/5 700 м
[Cu Sc Ci sp]
+28.3 +23.1 73 +38 +40 очень
душно
1008.4 1008.0
15 21.05 нст 3
{12}
25 км 8/5 660 м
[Cu Sc Ci sp]
+27.3 +23.4 79 +37 +37 очень
душно
1009.6 1010.0
18 21.05 нст 4
{11}
40 км 8/5 600 м
[Cu Sc Ac trans Ci sp]
+27.1 +23.0 78 +29.5
21 21.05 нст 3
{11}
н/о ясно +27.0 +23.5 81 +37 +37 очень
душно
1010.3 1010.0
00 22.05 нст 4
{10}
н/о 3/3 600 м
[]
+27.1 +23.2 79 +36 +36 очень
душно
1008.9 1009.0
03 22.05 нст 6
{11}
40 км 9/6 800 м
[Cu Sc Ac trans Ci sp]
+27.4 +23.9 81 +38 +38 очень
душно
1009.9 1010.0
06 22.05 ЮВ 7
{12}
40 км 5/4 660 м
[Cu Sc Ci ing]
+29.0 +24.2 75 +40 +43 очень
душно
1011.4 1011.0 +26.8
09 22.05 нст 6
{13}
40 км 6/4 700 м
[Cu Sc Ci ing]
+29.2 +25.7 81 +43 +47 опасность
перегрева
1009.7 1010.0
12 22.05 нст 5
{12}
20 км {ливн. осадки} 8/6 600 м
[Cu Sc Ci ing]
+28.1 +24.8 82 +40 +41 очень
душно
1009.4 1009.0
15 22.05 нст 4
{10}
20 км 6/3 570 м
[Cu Sc Ci ing]
+27.3 +24.0 82 +38 +38 очень
душно
1011.0 1011.0
18 22.05 нст 4
{11}
20 км 5/5 630 м
[Cu Sc Ac trans Ci sp]
+27.3 +23.4 79 +37 +37 очень
душно
1012.2 1012.0 +29.9 0.0
21 22.05 нст 3
{8}
н/о ясно +27.4 +23.7 80 +37 +37 очень
душно
1011.4 1011.0
00 23.05 нст 4
{7}
н/о ясно +27.3 +23.2 78 +37 +37 очень
душно
1010.3 1010.0
03 23.05 нст 3
{9}
20 км {ливн. осадки} 9/5 420 м
[Cb cap Ac trans Ci ing]
+26.9 +22.8 78 +36 +36 очень
душно
1011.5 1012.0
06 23.05 нст 5 40 км 8/1 1000 м
[Cu med, cong Ci sp]
+29.1 +24.3 75 +41 +46 опасность
перегрева
1012.6 1013.0 +25.3 0.0
09 23.05 нст 6
{13}
40 км 9/3 450 м
[Cu Sc Ac trans Ci sp]
+28.3 +23.5 75 +38 +41 очень
душно
1011.3 1011.0
12 23.05 ЮВ 5
{11}
40 км 8/3 500 м
[Cb cap Ac trans Ci sp]
+28.3 +24.4 79 +40 +41 очень
душно
1009.6 1010.0
15 23.05 нст 3
{8}
40 км 8/3 480 м
[Cu Sc Ac trans]
+27.2 +24.5 85 +38 +38 очень
душно
1010.9 1011.0
18 23.05 нст 3
{10}
20 км {ливн. осадки} 3/3 750 м
[Cu Sc]
+26.7 +24.4 87 +37 +37 очень
душно
1012.1 1012.0 +29.5 4
21 23.05 нст 5
{10}
н/о 5/4 600 м
[Cu Sc Ac trans]
+27.0 +24.5 86 +38 +38 очень
душно
1011.4 1011.0
00 24.05 ЮВ 4
{12}
н/о 10/10 300 м
[]
+26.9 +24.8 88 +38 +38 очень
душно
1009.9 1010.0
03 24.05 нст 4
{10}
40 км слабый ливневой дождь 6/5 540 м
[Cu Sc Ac trans Ci ing]
+26.7 +24.6 88 +38 +38 очень
душно
1011.3 1011.0
06 24.05 нст 5
{11}
20 км {ливн. осадки} 4/4 400 м
[Cu Sc Ac trans]
+28.8 +25.3 81 +42 +46 опасность
перегрева
1012.5 1013.0 +25.3 5
09 24.05 ЮВ 7
{13}
40 км 5/4 480 м
[Cu Sc Ac trans Ci sp]
+29.4 +25.3 79 +43 +46 опасность
перегрева
1010.4 1010.0
12 24.05 нст 5
{12}
40 км 3/1 540 м
[Cu Sc Ac trans Ci fib]
+28.8 +24.7 79 +41 +44 опасность
перегрева
1008.5 1009.0
15 24.05 нст 3
{11}
40 км {ливн. осадки} 5/5 480 м
[Cu med, cong Ci fib]
+27.7 +24.6 83 +39 +39 очень
душно
1009.6 1010.0
18 24.05 ЮВ 5
{9}
40 км 5/3 480 м
[Cu Sc Ci sp]
+27.5 +24.6 84 +39 +39 очень
душно
1011.2 1011.0 +30.2 1
21 24.05 нст 3
{9}
н/о 3/0
[]
+27.1 +24.6 86 +38 +38 очень
душно
1010.4 1010.0

 

Местоположение метеостанции Seychelles (Сейшелы): широта -4.67 долгота 55.52 высота над уровнем моря 3 м.

В архиве по умолчанию представлена погода в Seychelles за последнюю неделю. Архивные данные за месяц целиком и за предыдущие месяцы, начиная с января 2011 года, Вы можете получить, выбрав интересующий диапазон дат из раскрывающегося списка и нажав кнопку "Ввод!".


*Определитесь, кто Вы:
робот инопланетянин человек

Внимание! Время в таблицах - всемирное. Для получения местного времени необходимо прибавить поправку, которая в Seychelles равна 4 ч.

Смотрите также архив погоды в соседних городах и на ближайших метеорологических станциях:

Погода в Agalega (Маврикий) (655 км)
Погода в Antsiranana (Мадагаскар) (1094 км)
Погода в Glorieuses Island (Реюньон) (1190 км)
Погода в Sambava (Мадагаскар) (1219 км)
Погода в Serge-Frolow (Реюньон) (1243 км)
Погода в Fascene (Мадагаскар) (1244 км)
Погода в Antalaha (Мадагаскар) (1274 км)
Погода в Mogadiscio (Сомали) (1354 км)
Погода в Saint Brandon Saint Raphael (Маврикий) (1385 км)
Погода в Antsohihy (Мадагаскар) (1404 км)

Пояснения к столбцам:

Ветер - указаны скорость ветра в м/с - средняя за 10 мин, порывы в срок и между сроками (в фигурных скобках) и направление, откуда дует ветер: С - северный, СВ - северо-восточный, В - восточный, ЮВ - юго-восточный, Ю - южный, ЮЗ - юго-западный, З - западный, СЗ - северо-западный.
Видимость - горизонтальная дальность видимости в метрах или километрах. При видимости от 1 до 10 км при отсутствии осадков обычно наблюдается дымка, при ухудшении видимости до 1 км и менее - туман. В сухую погоду видимость может ухудшаться дымом, пылью или мглою.
Явления - указаны атмосферные явления, наблюдавшиеся в срок или в последний час перед сроком; фигурными скобками обозначены явления, наблюдавшиеся между сроками (за 1-3 часа до срока); квадратными скобками обозначены град или гололедные отложения с указанием их диаметра в мм.
Облачность - указаны через наклонную черту общая и нижняя облачность в баллах и высота нижней границы облаков в метрах; квадратными скобками обозначены формы облаков: Ci - перистые, Cs - перисто-слоистые, Cc - перисто-кучевые, Ac - высококучевые, As - высокослоистые, Sc - слоисто-кучевые, Ns - слоисто-дождевые, Cu - кучевые, Cb - кучево-дождевые. Подробнее классификацию облаков см. в Атласе облаков (PDF).
T - Температура воздуха - температура, измеренная на высоте 2 м над землей.
Td - Температура точки росы - температура, при понижении до которой содержащийся в воздухе водяной пар достигнет насыщения.
f - Относительная влажность воздуха - влажноcть воздуха, измеренная на высоте 2 м над землей.
Te - Эффективная температура - температура, которую ощущает одетый по сезону человек в тени. Характеристика душности погоды. При расчете учитывается влияние влажности воздуха и скорости ветра на теплоощущения человека.
Tes - Эффективная температура на солнце - температура, которую ощущает человек, с поправкой на солнечный нагрев. Характеристика знойности погоды. Зависит от высоты солнца над горизонтом, облачности и скорости ветра. Ночью, в пасмурную погоду, а также при ветре 12 м/с и более поправка равна нулю.
P - Атмосферное давление - приведенное к уровню моря атмосферное давление.
Po - Атмосферное давление - измеренное на уровне метеостанции атмосферное давление.
Tmin - Минимальная температура - минимум температуры воздуха на высоте 2 м над землей.
Tmax - Максимальная температура - максимум температуры воздуха на высоте 2 м над землей.
R - Количество осадков - Количество выпавших осадков за период времени, мм. При наведении курсора мыши на число - период времени, за который выпало указанное количество осадков.
R24 - Количество осадков - Количество выпавших осадков за 24 часа, мм.
S - Снежный покров - Высота снежного покрова, см. При наведении курсора мыши на число - состояние снежного покрова и степень покрытия местности в баллах.